Theta_e
321 320 322 322 321 322 320 321 320 321 323 322 323 322 323 324 324 323 325 324 324 322 321 322 320 318 319 319 317 318 317 315
321 321 320 321 319 320 321 321 320 320 320 318 319 319 321 321 322 324 324 323 323 324 321 322 321 320 321 321 319 317 314 315
319 320 320 319 318 318 319 322 321 322 321 320 320 320 320 320 321 323 325 324 324 325 324 322 323 321 322 320 318 317 318 316
318 318 319 318 318 319 318 319 320 322 323 320 318 318 318 318 319 320 323 325 325 325 325 324 324 324 322 322 322 322 319 320
318 318 318 320 320 321 322 319 319 321 321 320 318 317 317 318 318 320 322 325 326 324 325 325 325 324 323 324 324 324 323 321
318 319 319 319 319 321 322 320 319 319 321 320 317 316 321 320 319 318 319 322 322 323 325 325 325 325 325 326 325 325 324 323
320 320 320 320 319 320 322 321 319 319 320 319 317 315 317 317 317 317 318 318 320 322 324 326 326 325 325 326 327 327 325 325
320 319 319 319 318 318 320 320 319 319 319 320 320 321 320 321 319 318 319 320 320 321 325 325 326 327 329 330 329 328 328 326
320 320 321 320 319 318 317 317 317 320 321 320 323 324 322 322 323 323 322 322 324 325 326 326 327 328 329 329 328 327 327 327
321 321 322 321 320 320 319 319 320 320 320 322 322 323 323 322 322 324 325 324 324 327 325 325 325 325 325 325 325 325 327 328
320 322 322 322 322 321 321 320 319 322 323 322 322 323 323 323 323 322 323 324 323 322 324 324 324 324 324 325 326 326 326 327
320 321 323 323 323 322 321 320 319 320 322 323 323 323 323 323 323 323 323 323 323 323 323 324 324 323 325 325 326 326 322 319
320 321 322 323 323 322 320 320 320 321 322 323 323 324 324 323 322 324 325 324 325 324 323 322 323 324 325 324 321 317 316 316
319 320 321 322 323 323 322 321 321 322 322 322 322 323 323 323 324 324 324 323 324 324 323 323 323 324 323 323 319 316 316 319
318 319 321 322 323 323 323 323 323 322 321 321 321 321 322 323 323 324 324 323 322 322 322 322 323 322 323 323 322 318 317 318
315 318 320 322 322 323 324 324 323 323 321 320 320 322 322 321 321 322 321 321 320 321 322 323 325 324 324 324 319 317 314 312
312 314 318 320 321 323 323 323 323 323 322 321 321 321 321 321 321 321 322 322 322 323 323 323 323 317 297 298 303 311 305 298
312 313 313 318 321 322 323 323 323 322 321 321 321 321 320 321 321 321 321 322 322 316 307 304 301 298 293 294 294 296 292 290
312 313 314 315 319 322 322 323 321 320 320 319 320 319 319 318 318 315 308 305 303 301 298 295 292 290 289 289 289 288 286 286
Wind_Speed
8 5 6 6 7 8 10 9 9 8 6 8 9 10 9 9 7 9 12 11 10 9 9 10 8 7 7 8 9 7 6 5
8 7 6 7 7 7 11 11 10 8 6 5 7 8 9 6 5 10 13 12 11 10 8 8 7 8 7 8 6 8 5 4
10 9 9 8 8 8 9 11 12 10 8 5 4 7 5 5 4 6 12 12 11 10 12 11 11 9 9 9 8 6 6 8
13 11 11 10 11 10 9 10 12 11 11 8 7 6 5 4 6 5 7 13 15 13 15 12 12 10 9 9 10 11 8 7
14 14 14 13 12 11 13 11 12 13 13 13 13 9 13 10 10 8 7 13 15 15 14 13 13 8 10 11 10 10 10 9
17 16 15 14 13 13 12 13 13 12 15 12 10 9 10 8 7 12 8 8 9 11 13 14 12 10 11 12 11 12 9 9
15 15 14 15 13 14 14 14 14 14 13 13 14 13 9 10 10 8 6 8 9 9 14 11 11 10 12 12 11 12 11 10
17 18 16 16 17 16 14 15 15 15 16 16 17 19 18 16 15 12 12 11 9 12 13 12 10 13 12 11 10 12 13 12
19 19 17 16 17 17 16 17 16 17 17 16 16 19 13 13 17 13 13 13 14 15 15 15 15 14 12 11 10 10 12 12
21 20 19 18 18 18 19 19 18 18 19 17 17 17 18 14 16 16 13 15 13 16 17 16 15 14 14 13 11 13 13 12
17 18 20 19 19 18 19 19 19 18 19 18 16 18 19 16 15 17 16 15 16 16 16 15 15 15 15 16 13 12 10 9
14 16 16 18 18 19 19 18 19 18 18 18 18 18 19 19 17 18 17 17 18 18 17 17 17 17 17 16 16 13 11 9
12 14 15 17 18 18 19 19 19 18 18 18 18 17 18 18 19 18 17 18 17 18 18 18 19 19 18 15 13 10 12 15
12 13 15 16 17 18 19 19 20 18 18 18 17 18 18 18 18 17 18 17 17 17 17 18 18 17 17 15 16 14 17 19
12 13 14 15 16 18 18 18 18 18 19 18 18 19 18 17 17 17 16 17 16 16 17 17 17 16 17 19 15 14 14 12
13 14 14 16 16 17 16 16 18 18 18 18 18 16 16 16 16 15 15 16 16 17 16 16 15 15 11 12 12 12 12 9
8 12 14 16 17 17 16 16 16 16 17 17 15 15 15 15 14 15 14 15 14 14 13 14 11 5 8 7 8 4 3 6
11 11 14 15 16 15 15 15 14 15 15 14 14 14 13 13 13 13 12 11 10 4 5 7 7 7 8 9 12 8 9 9
13 13 10 11 12 13 13 15 14 14 14 13 12 11 9 7 6 4 5 5 6 6 8 9 10 9 16 17 18 12 11 12
Wind_Direction
155 171 155 137 157 163 145 149 132 108 75 63 82 98 98 100 119 155 156 136 143 136 131 137 138 140 156 169 170 166 169 174
154 162 156 156 155 154 160 155 150 129 111 97 102 120 126 112 119 150 158 154 146 145 137 144 148 146 174 174 171 157 157 169
166 176 168 173 163 158 172 165 160 154 129 120 98 121 123 135 119 150 162 154 157 167 163 180 184 169 169 180 185 171 185 190
176 183 177 177 173 169 168 168 161 163 143 133 108 94 97 137 169 161 174 156 181 178 181 178 186 186 181 190 199 200 199 196
176 183 179 184 176 178 174 170 176 164 159 163 162 158 168 182 186 175 164 169 180 188 186 185 190 189 193 203 206 212 228 215
179 183 183 182 176 178 180 173 174 173 172 171 171 183 175 166 176 182 180 173 181 191 191 196 196 202 207 216 208 215 221 237
183 173 177 176 181 185 176 180 179 177 182 175 178 188 176 164 174 182 198 194 202 216 213 211 216 213 222 219 213 221 228 229
183 174 182 179 180 188 187 185 179 188 187 191 192 193 197 181 186 187 187 194 213 220 221 222 218 223 223 225 223 230 231 238
190 176 184 185 181 185 190 193 191 187 192 194 203 201 200 199 195 195 193 201 200 207 213 214 217 221 226 226 234 242 244 244
191 178 183 186 185 186 189 192 200 194 195 197 201 200 203 202 199 205 200 198 202 205 212 209 215 222 228 233 237 240 242 245
194 189 182 185 185 182 190 197 197 195 197 200 202 202 206 210 206 206 206 206 212 212 219 220 225 231 233 236 240 244 249 251
197 197 190 189 184 184 185 193 199 202 199 199 204 205 207 211 214 213 215 214 217 222 227 230 233 236 236 237 237 227 232 243
192 199 194 194 193 190 187 191 197 201 203 201 203 205 206 212 218 220 220 225 227 229 231 234 236 236 236 235 222 202 227 244
183 187 195 201 201 199 196 194 196 197 199 202 206 209 209 212 215 220 223 226 230 232 233 235 238 239 237 229 228 234 236 243
188 188 193 199 205 206 205 201 199 197 198 202 204 209 212 213 214 219 220 223 224 226 231 235 238 244 242 241 240 238 243 242
198 197 198 197 202 205 207 203 198 200 201 205 209 208 212 215 217 216 218 220 225 230 234 241 244 249 254 254 246 242 237 230
223 219 209 208 202 204 199 199 198 195 203 208 210 212 215 215 217 223 224 229 232 238 244 252 256 274 345 279 261 235 129 109
268 241 221 215 207 196 201 193 185 192 195 199 200 206 212 216 220 222 228 237 251 274 49 62 51 29 49 75 76 70 75 79
282 272 242 207 201 193 181 181 179 185 187 187 189 188 193 191 192 178 92 83 84 77 70 70 72 55 76 80 81 84 81 76